This demonstration page uses our WeatherBlox Daily Observations layout. Learn more.

Left ArrowRight Arrow

39.01783, -85.05884

Hourly Observations for August 1, 2022

Temp ( °F °C ) Dew Point ( °F °C ) Humidity (%) Winds ( mph kmh ) Pressure ( in mb ) Visibility ( mi km ) Precip ( " mm )
12:52 am 00:52 Mostly Clear 70 21.1 70 21.1 100 100 S 3 6 30.04 1017 10 16 0.00 0.00
1:52 am 01:52 Mostly Cloudy 70 21.1 68 20 93 93 S 7 11 30.01 1016 10 16 0.00 0.00
2:52 am 02:52 Mostly Cloudy 70 21.1 70 21.1 100 100 S 6 9 30.01 1016 10 16 0.00 0.00
3:52 am 03:52 Partly Cloudy 69 20.6 69 20.6 100 100 S 5 7 30.00 1016 7 11 0.00 0.00
4:09 am 04:09 Mostly Cloudy 69 20.6 69 20.6 100 100 S 6 9 30.00 1016 7 11 0.00 0.00
4:52 am 04:52 Cloudy 70 21.1 70 21.1 100 100 SSW 5 7 30.00 1016 8 13 0.00 0.00
5:52 am 05:52 Cloudy with Mist and Fog 70 21.1 70 21.1 100 100 SSW 7 11 29.99 1016 6 10 0.00 0.00
6:43 am 06:43 Cloudy with Mist and Fog 71 21.7 71 21.7 100 100 SSW 7 11 29.99 1016 3 5 0.00 0.00
6:52 am 06:52 Cloudy with Mist and Fog 71 21.7 71 21.7 100 100 SSW 7 11 29.98 1015 3 5 0.00 0.00
7:12 am 07:12 Cloudy with Mist and Fog 71 21.7 71 21.7 100 100 SW 9 15 29.98 1015 3 5 0.00 0.00
7:52 am 07:52 Mostly Cloudy with Mist and Fog 72 22.2 72 22.2 100 100 SW 8 13 29.98 1015 3 5 0.00 0.00
8:08 am 08:08 Cloudy with Mist and Fog 73 22.8 73 22.8 100 100 SW 7 11 29.98 1015 5 8 0.00 0.00
8:52 am 08:52 Cloudy with Mist and Fog 74 23.3 73 22.8 97 97 SW 9 15 29.99 1016 6 10 0.00 0.00
9:28 am 09:28 Cloudy with Mist and Fog 75 23.9 73 22.8 94 94 SW 7 11 30.00 1016 5 8 0.00 0.00
9:46 am 09:46 Cloudy 75 24 73 23 94 94 SSW 10 17 29.98 1015 7 11 0.00 0.00
9:52 am 09:52 Cloudy 76 24.4 74 23.3 94 94 SW 9 15 29.98 1015 7 11 0.00 0.00
10:35 am 10:35 Cloudy with Light Rain 76 24.4 74 23.3 94 94 SW 9 15 29.98 1015 5 8 0.00 0.00
10:52 am 10:52 Cloudy 78 25.6 75 23.9 90 90 SW 13 20 29.99 1016 7 11 0.00 0.00
11:14 am 11:14 Cloudy with Light Rain 76 24.4 75 23.9 97 97 SW 16 26 29.98 1015 3 5 0.00 0.00
11:32 am 11:32 Cloudy with Light Rain 75 23.9 73 22.8 94 94 WSW 10 17 29.97 1015 6 10 0.04 1.02
11:52 am 11:52 Cloudy with Light Rain 74 23.3 71 21.7 91 91 SW 3 6 29.96 1015 9 14 0.04 1.02
12:52 pm 12:52 Mostly Cloudy 79 26.1 77 25 94 94 SW 12 19 29.95 1014 8 13 0.01 0.25
1:52 pm 13:52 Mostly Cloudy 80 26.7 69 20.6 69 69 W 15 24 29.95 1014 10 16 0.00 0.00
2:52 pm 14:52 Mostly Cloudy 83 28.3 70 21.1 65 65 WSW 13 20 29.93 1014 10 16 0.00 0.00
3:52 pm 15:52 Mostly Cloudy 84 28.9 69 20.6 61 61 WSW 17 28 29.91 1013 10 16 0.00 0.00
4:52 pm 16:52 Partly Cloudy 85 29.4 72 22.2 65 65 SW 12 19 29.89 1012 10 16 0.00 0.00
5:33 pm 17:33 Cloudy with Nearby Thunderstorms 83 28.3 73 22.8 72 72 SW 17 28 29.87 1012 8 13 0.00 0.00
5:52 pm 17:52 Cloudy with Nearby Thunderstorms 82 27.8 74 23.3 77 77 WSW 12 19 29.89 1012 9 14 0.01 0.25
6:00 pm 18:00 Cloudy with Nearby Thunderstorms 81 27.2 75 23.9 82 82 SW 14 22 29.88 1012 2 2 0.00 0.00
6:02 pm 18:02 Cloudy with Rain 80 26.7 75 23.9 85 85 SW 12 19 29.88 1012 2 3 0.00 0.00
6:22 pm 18:22 Partly Cloudy 83 28.3 77 25 82 82 WSW 14 22 29.87 1012 8 13 0.09 2.29
6:42 pm 18:42 Mostly Cloudy with Thunderstorms 82 27.8 75 23.9 79 79 SW 13 20 29.87 1012 8 13 0.09 2.29
6:52 pm 18:52 Mostly Cloudy with Thunderstorms 83 28.3 76 24.4 79 79 SW 13 20 29.88 1012 8 13 0.09 2.29
7:03 pm 19:03 Cloudy with Light Rain 81 27.2 75 23.9 82 82 SW 12 19 29.88 1012 5 8 0.00 0.00
7:52 pm 19:52 Mostly Cloudy 81 27.2 75 23.9 82 82 WSW 8 13 29.88 1012 8 13 0.01 0.25
8:52 pm 20:52 Mostly Cloudy 79 26.1 76 24.4 90 90 WSW 6 9 29.89 1012 7 11 0.00 0.00
9:52 pm 21:52 Mostly Cloudy 79 26.1 76 24.4 90 90 SW 6 9 29.90 1012 8 13 0.00 0.00
10:52 pm 22:52 Mostly Cloudy 79 26.1 76 24.4 90 90 SW 9 15 29.89 1012 8 13 0.00 0.00
11:52 pm 23:52 Partly Cloudy 78 25.6 76 24.4 93 93 WSW 9 15 29.90 1012 8 13 0.00 0.00

Powered by AerisWeather